Weather History for Memphis, TN

Change the Weather History Date:

Wednesday, November 28, 2012

  Actual Average Record
Temperature  
Mean Temperature 43 °F 48 °F  
Max Temperature 55 °F 57 °F 77 °F (1998)
Min Temperature 30 °F 39 °F 18 °F (1887)
Degree Days  
Heating Degree Days 22 17  
Month to date heating degree days 369 334  
Since 1 July heating degree days 531 465  
Cooling Degree Days 0 0  
Month to date cooling degree days 4 11  
Year to date cooling degree days 2613 2254  
Moisture  
Dew Point 29 °F    
Average Humidity 62    
Maximum Humidity 92    
Minimum Humidity 32    
Precipitation  
Precipitation 0.00 in 0.21 in 5.88 in (2001)
Month to date precipitation 2.90 5.06  
Year to date precipitation 33.17 47.51  
Snow  
Snow 0.00 in 0.00 in 0.30 in (1976)
Month to date snowfall 0.0 0.0  
Since 1 July snowfall 0.0 0.0  
Since 1 September snowfall 0.0 0.0  
Snow Depth 0.00 in    
Sea Level Pressure  
Sea Level Pressure 30.42 in    
Wind  
Wind Speed 0 mph (SE)    
Max Wind Speed 6 mph    
Max Gust Speed 10 mph    
Visibility 9 miles    
Events      
T = Trace of Precipitation, MM = Missing Value Source: NWS Daily Summary

Daily Weather History Graph

Daily Weather History Graph

Search for Another Location

Airport:

Trip Planner

Search our weather history database for the weather conditions in past years. The results will help you decide how hot, cold, wet, or windy it might be!

Date:

Astronomy

Nov. 28, 2012 Rise Set
Actual Time 6:47 AM CST 4:48 PM CST
Civil Twilight 6:19 AM CST 5:16 PM CST
Nautical Twilight 5:48 AM CST 5:47 PM CST
Astronomical Twilight 5:18 AM CST 6:17 PM CST
Moon 5:03 PM CST (11/28) 6:44 AM CST (11/28)
Length of Visible Light 10h 56m
Length of Day
10h 01m
Full, 100% of the Moon is Illuminated
Nov 28
Full
Dec 6
Last Quarter
Dec 13
New
Dec 19
First Quarter
Dec 28
Full

Hourly Weather History & Observations

Time (CST) Temp. Dew Point Humidity Pressure Visibility Wind Dir Wind Speed Gust Speed Precip Events Conditions
12:54 AM 32.0 °F 28.9 °F 88% 30.39 in 9.0 mi Calm Calm - N/A   Clear
1:54 AM 32.0 °F 28.9 °F 88% 30.39 in 9.0 mi Calm Calm - N/A   Clear
2:54 AM 30.9 °F 28.9 °F 92% 30.39 in 9.0 mi Calm Calm - N/A   Clear
3:54 AM 32.0 °F 30.0 °F 92% 30.40 in 9.0 mi Calm Calm - N/A   Clear
4:54 AM 34.0 °F 30.0 °F 85% 30.41 in 9.0 mi Calm Calm - N/A   Clear
5:54 AM 33.1 °F 28.9 °F 85% 30.42 in 9.0 mi Calm Calm - N/A   Clear
6:54 AM 30.9 °F 28.0 °F 89% 30.45 in 9.0 mi Calm Calm - N/A   Clear
7:54 AM 34.0 °F 30.0 °F 85% 30.47 in 9.0 mi Calm Calm - N/A   Clear
8:54 AM 39.0 °F 34.0 °F 82% 30.48 in 5.0 mi Calm Calm - N/A   Haze
9:54 AM 44.1 °F 34.0 °F 68% 30.50 in 7.0 mi Calm Calm - N/A   Clear
10:54 AM 46.0 °F 32.0 °F 58% 30.49 in 10.0 mi Calm Calm - N/A   Clear
11:54 AM 51.1 °F 28.9 °F 43% 30.47 in 10.0 mi Calm Calm - N/A   Clear
12:54 PM 51.1 °F 27.0 °F 39% 30.44 in 10.0 mi SE 3.5 mph - N/A   Clear
1:54 PM 53.1 °F 25.0 °F 34% 30.42 in 10.0 mi Calm Calm - N/A   Clear
2:54 PM 55.0 °F 26.1 °F 33% 30.40 in 10.0 mi Calm Calm - N/A   Clear
3:54 PM 53.1 °F 26.1 °F 35% 30.40 in 10.0 mi Calm Calm - N/A   Clear
4:54 PM 50.0 °F 26.1 °F 39% 30.39 in 10.0 mi Variable 3.5 mph - N/A   Clear
5:54 PM 48.0 °F 28.0 °F 46% 30.39 in 10.0 mi Calm Calm - N/A   Clear
6:54 PM 44.1 °F 28.9 °F 55% 30.40 in 10.0 mi Calm Calm - N/A   Clear
7:54 PM 41.0 °F 30.9 °F 67% 30.40 in 10.0 mi Calm Calm - N/A   Clear
8:54 PM 39.9 °F 30.9 °F 70% 30.39 in 10.0 mi Calm Calm - N/A   Clear
9:54 PM 37.0 °F 28.9 °F 73% 30.39 in 10.0 mi Calm Calm - N/A   Clear
10:54 PM 36.0 °F 30.0 °F 79% 30.38 in 10.0 mi Calm Calm - N/A   Clear
11:54 PM 36.0 °F 28.9 °F 76% 30.37 in 10.0 mi Calm Calm - N/A   Clear